Location: Shepherdstown, WV
(39.4326°N, 77.8042°W)
Time: 19:44:08
(UTC-04:00)

Vanguard 3 - Pass Details

Date: 04 August 2021
Orbit: 510 x 3260 km, 33.3° (Epoch: 18 September)

Event Time Altitude Azimuth Distance (km) Brightness Sun altitude
Rises 20:56:33 0° 269° (W) 5,868 12.7 -7.2°
Reaches altitude 10° 20:59:56 10° 267° (W) 5,152 12.2 -7.7°
Maximum altitude 21:16:26 69° 189° (S) 3,307 10.1 -10.5°
Enters shadow 21:34:40 14° 112° (ESE) 5,719 10.8 -13.4°
